| time (UTC) | temp F | wind direction | speed MPH | gust MPH | rain 1hr in | rain 24hr in | rain mn in | humidity % | barometer mb |
| 20260505003054 | 51 | 180 | 1.0 | 1.0 | 0.00 | 0.28 | 0.01 | 89 | 1018.4 |
| 20260505002554 | 51 | 269 | 2.0 | 3.0 | 0.00 | 0.28 | 0.01 | 89 | 1018.5 |
| 20260505002053 | 51 | 270 | 2.0 | 3.0 | 0.00 | 0.28 | 0.01 | 89 | 1018.7 |
| 20260505001554 | 51 | 260 | 3.0 | 5.0 | 0.00 | 0.28 | 0.01 | 90 | 1018.9 |
| 20260505001054 | 51 | 235 | 3.0 | 5.0 | 0.00 | 0.28 | 0.01 | 90 | 1019.0 |
| 20260505000553 | 51 | 270 | 2.0 | 3.0 | 0.01 | 0.28 | 0.01 | 90 | 1018.9 |
| 20260505000053 | 51 | 270 | 2.0 | 3.0 | 0.01 | 0.28 | 0.01 | 91 | 1019.1 |
| 20260504235554 | 51 | 307 | 2.0 | 6.0 | 0.01 | 0.28 | 0.01 | 92 | 1019.1 |
| 20260504235054 | 51 | 319 | 3.0 | 6.0 | 0.01 | 0.28 | 0.01 | 93 | 1019.1 |
| 20260504234553 | 50 | 270 | 3.0 | 6.0 | 0.01 | 0.28 | 0.01 | 93 | 1019.2 |
| 20260504234053 | 50 | 270 | 1.0 | 2.0 | 0.01 | 0.28 | 0.01 | 93 | 1019.3 |
| 20260504233554 | 50 | 270 | 3.0 | 6.0 | 0.01 | 0.28 | 0.01 | 94 | 1019.4 |
| 20260504233054 | 50 | 258 | 3.0 | 3.0 | 0.01 | 0.28 | 0.01 | 94 | 1019.4 |
| 20260504232553 | 50 | 257 | 1.0 | 3.0 | 0.01 | 0.28 | 0.01 | 94 | 1019.4 |
| 20260504232054 | 50 | 270 | 0.0 | 1.0 | 0.01 | 0.28 | 0.01 | 93 | 1019.6 |
| 20260504231554 | 50 | 310 | 1.0 | 2.0 | 0.01 | 0.28 | 0.01 | 93 | 1019.6 |
| 20260504231053 | 50 | 180 | 1.0 | 2.0 | 0.01 | 0.28 | 0.01 | 93 | 1019.7 |
| 20260504230554 | 50 | 138 | 2.0 | 3.0 | 0.00 | 0.27 | 0.00 | 92 | 1019.7 |
| 20260504230054 | 50 | 135 | 1.0 | 2.0 | 0.00 | 0.27 | 0.00 | 92 | 1019.7 |
| 20260504225554 | 50 | 225 | 1.0 | 3.0 | 0.00 | 0.27 | 0.00 | 92 | 1019.7 |
| 20260504225054 | 50 | 143 | 3.0 | 3.0 | 0.00 | 0.27 | 0.00 | 91 | 1019.8 |
| 20260504224554 | 50 | 180 | 1.0 | 2.0 | 0.00 | 0.27 | 0.00 | 91 | 1019.8 |
| 20260504224053 | 50 | 135 | 1.0 | 1.0 | 0.00 | 0.27 | 0.00 | 90 | 1019.9 |
| 20260504223554 | 50 | 135 | 1.0 | 2.0 | 0.00 | 0.27 | 0.00 | 90 | 1019.9 |
| 20260504223053 | 50 | 315 | 1.0 | 1.0 | 0.00 | 0.27 | 0.00 | 90 | 1019.9 |
| 20260504222554 | 50 | 315 | 0.0 | 0.0 | 0.00 | 0.27 | 0.00 | 90 | 1020.0 |
| 20260504222054 | 50 | 315 | 0.0 | 1.0 | 0.00 | 0.27 | 0.00 | 90 | 1020.0 |
| 20260504221553 | 50 | 270 | 2.0 | 3.0 | 0.00 | 0.27 | 0.00 | 90 | 1020.0 |
| 20260504221053 | 50 | 273 | 5.0 | 6.0 | 0.00 | 0.27 | 0.00 | 91 | 1020.2 |
| 20260504220553 | 50 | 270 | 3.0 | 6.0 | 0.00 | 0.27 | 0.00 | 91 | 1020.2 |
| 20260504220054 | 51 | 270 | 3.0 | 5.0 | 0.00 | 0.27 | 0.00 | 91 | 1020.5 |
| 20260504215554 | 50 | 230 | 3.0 | 7.0 | 0.02 | 0.27 | 0.27 | 91 | 1020.6 |
| 20260504215054 | 50 | 270 | 5.0 | 6.0 | 0.02 | 0.27 | 0.27 | 91 | 1020.7 |
| 20260504214553 | 50 | 253 | 3.0 | 6.0 | 0.02 | 0.27 | 0.27 | 91 | 1020.8 |
| 20260504214054 | 50 | 270 | 2.0 | 6.0 | 0.02 | 0.27 | 0.27 | 91 | 1020.9 |
| 20260504213553 | 50 | 263 | 2.0 | 3.0 | 0.02 | 0.27 | 0.27 | 91 | 1021.0 |
| 20260504213054 | 50 | 225 | 1.0 | 1.0 | 0.04 | 0.27 | 0.27 | 90 | 1021.0 |
| 20260504212554 | 50 | 180 | 0.0 | 0.0 | 0.04 | 0.27 | 0.27 | 90 | 1021.2 |
| 20260504212053 | 50 | 180 | 0.0 | 1.0 | 0.02 | 0.26 | 0.26 | 90 | 1021.2 |
| 20260504211554 | 50 | 180 | 1.0 | 3.0 | 0.02 | 0.26 | 0.26 | 90 | 1021.2 |
| 20260504211053 | 50 | 180 | 0.0 | 0.0 | 0.02 | 0.26 | 0.26 | 90 | 1021.2 |
| 20260504210553 | 51 | 180 | 2.0 | 6.0 | 0.02 | 0.26 | 0.26 | 90 | 1021.3 |
| 20260504210053 | 51 | 158 | 3.0 | 6.0 | 0.04 | 0.25 | 0.25 | 91 | 1021.2 |
| 20260504205553 | 51 | 245 | 1.0 | 2.0 | 0.04 | 0.25 | 0.25 | 91 | 1021.2 |
| 20260504205054 | 50 | 270 | 5.0 | 7.0 | 0.04 | 0.25 | 0.25 | 93 | 1021.2 |
| 20260504204553 | 50 | 208 | 1.0 | 3.0 | 0.05 | 0.25 | 0.25 | 93 | 1021.2 |
| 20260504204053 | 50 | 225 | 1.0 | 1.0 | 0.05 | 0.25 | 0.25 | 93 | 1021.2 |
| 20260504203553 | 50 | 221 | 2.0 | 3.0 | 0.06 | 0.25 | 0.25 | 93 | 1021.4 |
| 20260504203053 | 50 | 239 | 1.0 | 3.0 | 0.05 | 0.24 | 0.24 | 93 | 1021.3 |
| 20260504202554 | 50 | 254 | 2.0 | 3.0 | 0.06 | 0.24 | 0.24 | 93 | 1021.3 |
| 20260504202053 | 50 | 214 | 1.0 | 2.0 | 0.06 | 0.24 | 0.24 | 93 | 1021.3 |
| 20260504201553 | 50 | 206 | 0.0 | 1.0 | 0.06 | 0.24 | 0.24 | 93 | 1021.3 |
| 20260504201054 | 50 | 219 | 1.0 | 2.0 | 0.06 | 0.24 | 0.24 | 93 | 1021.3 |
| 20260504200554 | 50 | 217 | 1.0 | 2.0 | 0.06 | 0.24 | 0.24 | 93 | 1021.3 |
| 20260504200054 | 50 | 180 | 0.0 | 1.0 | 0.05 | 0.21 | 0.21 | 92 | 1021.4 |
| 20260504195553 | 50 | 180 | 0.0 | 1.0 | 0.05 | 0.21 | 0.21 | 92 | 1021.4 |
| 20260504195054 | 50 | 180 | 0.0 | 0.0 | 0.05 | 0.21 | 0.21 | 92 | 1021.3 |
| 20260504194554 | 50 | 180 | 0.0 | 0.0 | 0.04 | 0.20 | 0.20 | 92 | 1021.2 |
| 20260504194053 | 50 | 158 | 1.0 | 2.0 | 0.04 | 0.20 | 0.20 | 91 | 1021.2 |
| 20260504193552 | 50 | 158 | 1.0 | 1.0 | 0.02 | 0.19 | 0.19 | 91 | 1021.2 |
| 20260504193054 | 50 | 158 | 0.0 | 1.0 | 0.04 | 0.19 | 0.19 | 90 | 1021.1 |
| 20260504192553 | 51 | 158 | 0.0 | 2.0 | 0.02 | 0.18 | 0.18 | 90 | 1021.1 |
| 20260504192053 | 51 | 158 | 0.0 | 0.0 | 0.04 | 0.18 | 0.18 | 90 | 1021.0 |
| 20260504191553 | 51 | 158 | 0.0 | 0.0 | 0.04 | 0.18 | 0.18 | 89 | 1021.1 |
| 20260504191052 | 51 | 135 | 0.0 | 1.0 | 0.05 | 0.18 | 0.18 | 88 | 1020.9 |
| 20260504190554 | 51 | 135 | 0.0 | 1.0 | 0.06 | 0.18 | 0.18 | 87 | 1020.9 |
| 20260504190053 | 51 | 158 | 0.0 | 0.0 | 0.05 | 0.17 | 0.17 | 86 | 1020.8 |
| 20260504185553 | 51 | 158 | 0.0 | 1.0 | 0.06 | 0.17 | 0.17 | 86 | 1020.7 |
| 20260504185054 | 51 | 135 | 1.0 | 2.0 | 0.06 | 0.17 | 0.17 | 86 | 1020.8 |
| 20260504184554 | 51 | 135 | 2.0 | 3.0 | 0.07 | 0.17 | 0.17 | 87 | 1020.8 |
| 20260504184053 | 51 | 135 | 2.0 | 3.0 | 0.07 | 0.17 | 0.17 | 88 | 1020.8 |
| 20260504183552 | 51 | 135 | 1.0 | 3.0 | 0.08 | 0.17 | 0.17 | 88 | 1020.9 |
| 20260504183054 | 51 | 135 | 2.0 | 3.0 | 0.07 | 0.15 | 0.15 | 87 | 1020.9 |
| 20260504182554 | 52 | 135 | 2.0 | 3.0 | 0.07 | 0.15 | 0.15 | 86 | 1020.9 |
| 20260504182053 | 52 | 145 | 1.0 | 2.0 | 0.07 | 0.14 | 0.14 | 86 | 1020.9 |
| 20260504181554 | 52 | 144 | 1.0 | 2.0 | 0.08 | 0.14 | 0.14 | 86 | 1020.9 |
| 20260504181053 | 52 | 135 | 2.0 | 3.0 | 0.07 | 0.13 | 0.13 | 86 | 1021.0 |
| 20260504180554 | 52 | 135 | 1.0 | 2.0 | 0.07 | 0.12 | 0.12 | 87 | 1020.9 |
| 20260504180054 | 53 | 135 | 3.0 | 3.0 | 0.07 | 0.12 | 0.12 | 87 | 1021.0 |
| 20260504175553 | 53 | 135 | 2.0 | 3.0 | 0.07 | 0.11 | 0.11 | 88 | 1021.0 |
| 20260504175053 | 53 | 135 | 3.0 | 3.0 | 0.07 | 0.11 | 0.11 | 88 | 1021.0 |
| 20260504174553 | 53 | 135 | 2.0 | 3.0 | 0.06 | 0.09 | 0.09 | 87 | 1021.0 |
| 20260504174054 | 53 | 135 | 3.0 | 5.0 | 0.07 | 0.09 | 0.09 | 85 | 1021.0 |
| 20260504173553 | 53 | 135 | 5.0 | 6.0 | 0.06 | 0.08 | 0.08 | 84 | 1020.9 |
| 20260504173053 | 53 | 135 | 2.0 | 5.0 | 0.06 | 0.08 | 0.08 | 85 | 1020.9 |
| 20260504172554 | 53 | 135 | 2.0 | 5.0 | 0.06 | 0.08 | 0.08 | 86 | 1021.0 |
| 20260504172054 | 54 | 135 | 1.0 | 3.0 | 0.05 | 0.07 | 0.07 | 86 | 1020.9 |
| 20260504171554 | 54 | 135 | 2.0 | 3.0 | 0.04 | 0.06 | 0.06 | 85 | 1020.9 |
| 20260504171053 | 54 | 135 | 3.0 | 6.0 | 0.04 | 0.06 | 0.06 | 85 | 1020.9 |
| 20260504170553 | 54 | 135 | 2.0 | 3.0 | 0.02 | 0.05 | 0.05 | 84 | 1020.7 |
| 20260504151059 | 56 | 135 | 2.0 | 3.0 | 0.01 | 0.02 | 0.02 | 75 | 1020.2 |
| 20260504150600 | 56 | 135 | 2.0 | 3.0 | 0.01 | 0.02 | 0.02 | 75 | 1020.2 |
| 20260504141059 | 57 | 135 | 2.0 | 3.0 | 0.00 | 0.01 | 0.01 | 74 | 1020.7 |
| 20260504140559 | 57 | 135 | 3.0 | 6.0 | 0.00 | 0.01 | 0.01 | 75 | 1020.7 |
| 20260504130559 | 58 | 135 | 0.0 | 1.0 | 0.00 | 0.01 | 0.01 | 70 | 1021.2 |
| 20260504110600 | 60 | 112 | 1.0 | 2.0 | 0.00 | 0.00 | 0.00 | 63 | 1021.5 |
| 20260504100600 | 60 | 135 | 0.0 | 1.0 | 0.00 | 0.00 | 0.00 | 63 | 1021.3 |
| 20260504081600 | 58 | 121 | 1.0 | 3.0 | 0.00 | 0.00 | 0.00 | 74 | 1020.6 |
| 20260504081059 | 58 | 149 | 1.0 | 5.0 | 0.00 | 0.00 | 0.00 | 74 | 1020.6 |
| 20260504080559 | 58 | 138 | 2.0 | 3.0 | 0.00 | 0.00 | 0.00 | 74 | 1020.7 |
| 20260504050559 | 54 | 135 | 0.0 | 0.0 | 0.00 | 0.00 | 0.00 | 80 | 1019.8 |
| 20260504045559 | 54 | 135 | 0.0 | 0.0 | 0.00 | 0.00 | 0.00 | 80 | 1019.6 |
| 20260504045058 | 54 | 135 | 0.0 | 0.0 | 0.00 | 0.00 | 0.00 | 80 | 1019.7 |
| 20260504044558 | 54 | 135 | 1.0 | 2.0 | 0.00 | 0.00 | 0.00 | 80 | 1019.6 |
| 20260504044100 | 54 | 158 | 1.0 | 2.0 | 0.00 | 0.00 | 0.00 | 80 | 1019.6 |
| 20260504043559 | 54 | 138 | 0.0 | 3.0 | 0.00 | 0.00 | 0.00 | 80 | 1019.5 |
| 20260504043058 | 54 | 158 | 1.0 | 2.0 | 0.00 | 0.00 | 0.00 | 80 | 1019.5 |
| 20260504042558 | 54 | 158 | 0.0 | 1.0 | 0.00 | 0.00 | 0.00 | 79 | 1019.5 |
| 20260504042059 | 54 | 158 | 0.0 | 0.0 | 0.00 | 0.00 | 0.00 | 78 | 1019.5 |
| 20260504041559 | 54 | 158 | 0.0 | 1.0 | 0.00 | 0.00 | 0.00 | 78 | 1019.4 |
| 20260504041059 | 54 | 135 | 0.0 | 0.0 | 0.00 | 0.00 | 0.00 | 77 | 1019.5 |
| 20260504040559 | 55 | 143 | 0.0 | 1.0 | 0.00 | 0.00 | 0.00 | 74 | 1019.5 |
| 20260504035558 | 55 | 135 | 0.0 | 0.0 | 0.00 | 0.00 | 0.00 | 74 | 1019.5 |
| 20260504035058 | 54 | 135 | 0.0 | 0.0 | 0.00 | 0.00 | 0.00 | 78 | 1019.5 |
| 20260504034557 | 54 | 135 | 1.0 | 2.0 | 0.00 | 0.00 | 0.00 | 79 | 1019.5 |
| 20260504034059 | 54 | 158 | 0.0 | 1.0 | 0.00 | 0.00 | 0.00 | 79 | 1019.4 |
| 20260504033558 | 54 | 158 | 1.0 | 2.0 | 0.00 | 0.00 | 0.00 | 78 | 1019.4 |
| 20260504033058 | 54 | 135 | 0.0 | 0.0 | 0.00 | 0.00 | 0.00 | 78 | 1019.5 |
| 20260504032557 | 54 | 135 | 0.0 | 0.0 | 0.00 | 0.00 | 0.00 | 78 | 1019.5 |
| 20260504032057 | 54 | 158 | 1.0 | 1.0 | 0.00 | 0.00 | 0.00 | 78 | 1019.4 |
| 20260504031558 | 54 | 158 | 1.0 | 2.0 | 0.00 | 0.00 | 0.00 | 78 | 1019.5 |
| 20260504031059 | 54 | 158 | 3.0 | 5.0 | 0.00 | 0.00 | 0.00 | 77 | 1019.5 |
| 20260504030558 | 54 | 158 | 0.0 | 0.0 | 0.00 | 0.00 | 0.00 | 76 | 1019.5 |
| 20260504030058 | 55 | 158 | 0.0 | 0.0 | 0.00 | 0.00 | 0.00 | 72 | 1019.6 |
| 20260504025557 | 55 | 158 | 0.0 | 0.0 | 0.00 | 0.00 | 0.00 | 72 | 1019.7 |
| 20260504025059 | 55 | 158 | 0.0 | 0.0 | 0.00 | 0.00 | 0.00 | 71 | 1019.6 |
| 20260504024558 | 56 | 135 | 0.0 | 0.0 | 0.00 | 0.00 | 0.00 | 71 | 1019.7 |
| 20260504024057 | 56 | 158 | 1.0 | 2.0 | 0.00 | 0.00 | 0.00 | 71 | 1019.6 |
| 20260504023557 | 56 | 135 | 1.0 | 1.0 | 0.00 | 0.00 | 0.00 | 72 | 1019.7 |
| 20260504023058 | 55 | 135 | 1.0 | 3.0 | 0.00 | 0.00 | 0.00 | 72 | 1019.7 |
| 20260504022557 | 55 | 140 | 1.0 | 2.0 | 0.00 | 0.00 | 0.00 | 73 | 1019.8 |
| 20260504022058 | 55 | 139 | 2.0 | 3.0 | 0.00 | 0.00 | 0.00 | 74 | 1019.8 |
| 20260504021558 | 55 | 135 | 0.0 | 1.0 | 0.00 | 0.00 | 0.00 | 73 | 1019.9 |
| 20260504021058 | 55 | 135 | 0.0 | 0.0 | 0.00 | 0.00 | 0.00 | 73 | 1019.9 |
| 20260504020558 | 55 | 135 | 0.0 | 0.0 | 0.00 | 0.00 | 0.00 | 73 | 1019.9 |
| 20260504020049 | 55 | 135 | 0.0 | 0.0 | 0.00 | 0.00 | 0.00 | 72 | 1019.8 |
| 20260504015549 | 55 | 135 | 0.0 | 0.0 | 0.00 | 0.00 | 0.00 | 71 | 1019.8 |
| 20260504015048 | 56 | 135 | 0.0 | 0.0 | 0.00 | 0.00 | 0.00 | 70 | 1019.8 |
| 20260504014550 | 56 | 158 | 0.0 | 0.0 | 0.00 | 0.00 | 0.00 | 70 | 1019.9 |
| 20260504014049 | 57 | 135 | 1.0 | 3.0 | 0.00 | 0.00 | 0.00 | 70 | 1019.9 |
| 20260504013549 | 57 | 135 | 5.0 | 6.0 | 0.00 | 0.00 | 0.00 | 70 | 1019.8 |
| 20260504013048 | 56 | 135 | 2.0 | 5.0 | 0.00 | 0.00 | 0.00 | 72 | 1019.8 |
| 20260504012550 | 56 | 135 | 2.0 | 3.0 | 0.00 | 0.00 | 0.00 | 74 | 1019.8 |
| 20260504012049 | 54 | 135 | 0.0 | 2.0 | 0.00 | 0.00 | 0.00 | 76 | 1019.9 |
| 20260504011548 | 54 | 158 | 0.0 | 1.0 | 0.00 | 0.00 | 0.00 | 78 | 1019.8 |
| 20260504011050 | 54 | 135 | 0.0 | 1.0 | 0.00 | 0.00 | 0.00 | 77 | 1019.9 |
| 20260504010549 | 55 | 135 | 0.0 | 1.0 | 0.00 | 0.00 | 0.00 | 74 | 1019.9 |
| 20260504010049 | 55 | 135 | 0.0 | 0.0 | 0.00 | 0.00 | 0.00 | 73 | 1019.9 |
| 20260504005548 | 55 | 135 | 0.0 | 0.0 | 0.00 | 0.00 | 0.00 | 73 | 1019.9 |
| 20260504005048 | 55 | 112 | 0.0 | 0.0 | 0.00 | 0.00 | 0.00 | 72 | 1019.8 |
| 20260504004548 | 55 | 122 | 1.0 | 1.0 | 0.00 | 0.00 | 0.00 | 71 | 1019.9 |
| 20260504004049 | 56 | 121 | 0.0 | 2.0 | 0.00 | 0.00 | 0.00 | 71 | 1019.8 |
| 20260504003549 | 56 | 158 | 1.0 | 5.0 | 0.00 | 0.00 | 0.00 | 71 | 1019.9 |